| time (UTC) | temp F | wind direction | speed knots | gust knots | rain 1hr in | rain 24hr in | rain mn in | humidity % | barometer mb |
| 20260505011600 | 74 | 79 | 4.3 | 8.7 | 0.00 | 0.00 | 0.00 | 28 | 995.2 |
| 20260505010055 | 75 | 42 | 4.3 | 7.8 | 0.00 | 0.00 | 0.00 | 27 | 995.1 |
| 20260505004552 | 76 | 43 | 4.3 | 9.6 | 0.00 | 0.00 | 0.00 | 25 | 994.9 |
| 20260505003051 | 76 | 84 | 3.5 | 7.8 | 0.00 | 0.00 | 0.00 | 24 | 994.9 |
| 20260505001602 | 77 | 93 | 4.3 | 10.4 | 0.00 | 0.00 | 0.00 | 24 | 994.7 |
| 20260505000104 | 77 | 135 | 6.1 | 11.3 | 0.00 | 0.00 | 0.00 | 23 | 994.6 |
| 20260504234604 | 78 | 116 | 7.0 | 12.2 | 0.00 | 0.00 | 0.00 | 23 | 994.6 |
| 20260504233047 | 79 | 109 | 7.8 | 13.9 | 0.00 | 0.00 | 0.00 | 20 | 994.8 |
| 20260504231542 | 79 | 103 | 7.0 | 12.2 | 0.00 | 0.00 | 0.00 | 20 | 995.0 |
| 20260504230016 | 79 | 86 | 7.8 | 13.9 | 0.00 | 0.00 | 0.00 | 21 | 995.1 |
| 20260504224508 | 79 | 69 | 6.1 | 15.6 | 0.00 | 0.00 | 0.00 | 22 | 995.3 |
| 20260504223006 | 80 | 106 | 5.2 | 8.7 | 0.00 | 0.00 | 0.00 | 18 | 995.4 |
| 20260504221507 | 80 | 53 | 2.6 | 11.3 | 0.00 | 0.00 | 0.00 | 18 | 995.4 |
| 20260504221505 | 80 | 65 | 2.6 | 11.3 | 0.00 | 0.00 | 0.00 | 18 | 995.4 |
| 20260504220004 | 79 | 42 | 2.6 | 7.0 | 0.00 | 0.00 | 0.00 | 19 | 995.5 |
| 20260504214504 | 79 | 112 | 7.8 | 15.6 | 0.00 | 0.00 | 0.00 | 20 | 995.4 |
| 20260504213141 | 80 | 116 | 7.8 | 14.8 | 0.00 | 0.00 | 0.00 | 21 | 995.6 |
| 20260504211606 | 81 | 118 | 5.2 | 11.3 | 0.00 | 0.00 | 0.00 | 17 | 995.8 |
| 20260504210057 | 83 | 311 | 0.9 | 4.3 | 0.00 | 0.00 | 0.00 | 14 | 995.9 |
| 20260504204557 | 83 | 312 | 0.0 | 3.5 | 0.00 | 0.00 | 0.00 | 15 | 996.0 |
| 20260504203024 | 82 | 266 | 0.0 | 8.7 | 0.00 | 0.00 | 0.00 | 14 | 996.1 |
| 20260504201526 | 81 | 290 | 1.7 | 7.0 | 0.00 | 0.00 | 0.00 | 16 | 996.3 |
| 20260504200018 | 81 | 205 | 7.0 | 14.8 | 0.00 | 0.00 | 0.00 | 16 | 996.6 |
| 20260504194519 | 81 | 201 | 4.3 | 8.7 | 0.00 | 0.00 | 0.00 | 16 | 996.7 |
| 20260504193016 | 82 | 230 | 0.0 | 3.5 | 0.00 | 0.00 | 0.00 | 16 | 996.7 |
| 20260504191518 | 81 | 281 | 1.7 | 3.5 | 0.00 | 0.00 | 0.00 | 16 | 996.9 |
| 20260504190010 | 82 | 261 | 2.6 | 7.8 | 0.00 | 0.00 | 0.00 | 16 | 997.1 |
| 20260504184514 | 82 | 261 | 5.2 | 13.9 | 0.00 | 0.00 | 0.00 | 15 | 997.2 |
| 20260504183008 | 83 | 278 | 4.3 | 11.3 | 0.00 | 0.00 | 0.00 | 15 | 997.4 |
| 20260504181505 | 83 | 345 | 3.5 | 7.8 | 0.00 | 0.00 | 0.00 | 15 | 997.6 |
| 20260504180001 | 81 | 202 | 1.7 | 5.2 | 0.00 | 0.00 | 0.00 | 15 | 997.9 |
| 20260504174617 | 82 | 212 | 7.0 | 12.2 | 0.00 | 0.00 | 0.00 | 15 | 998.1 |
| 20260504173059 | 82 | 331 | 0.9 | 8.7 | 0.00 | 0.00 | 0.00 | 16 | 998.2 |
| 20260504171555 | 82 | 221 | 5.2 | 12.2 | 0.00 | 0.00 | 0.00 | 17 | 998.5 |
| 20260504100105 | 48 | 218 | 2.6 | 4.3 | 0.00 | 0.00 | 0.00 | 65 | 999.5 |
| 20260504100103 | 48 | 224 | 2.6 | 4.3 | 0.00 | 0.00 | 0.00 | 65 | 999.5 |
| 20260504090106 | 47 | 302 | 4.3 | 7.8 | 0.00 | 0.00 | 0.00 | 66 | 999.9 |
| 20260504081506 | 48 | 318 | 3.5 | 7.8 | 0.00 | 0.00 | 0.00 | 63 | 1000.4 |
| 20260504044559 | 58 | 33 | 4.3 | 9.6 | 0.00 | 0.00 | 0.00 | 47 | 1001.4 |
| 20260504043047 | 59 | 53 | 5.2 | 10.4 | 0.00 | 0.00 | 0.00 | 46 | 1001.5 |
| 20260504041545 | 59 | 53 | 2.6 | 5.2 | 0.00 | 0.00 | 0.00 | 44 | 1001.7 |
| 20260504040046 | 62 | 30 | 4.3 | 8.7 | 0.00 | 0.00 | 0.00 | 42 | 1001.9 |
| 20260504034552 | 62 | 45 | 3.5 | 8.7 | 0.00 | 0.00 | 0.00 | 40 | 1001.9 |
| 20260504033053 | 65 | 63 | 3.5 | 8.7 | 0.00 | 0.00 | 0.00 | 36 | 1002.0 |
| 20260504031525 | 67 | 41 | 4.3 | 12.2 | 0.00 | 0.00 | 0.00 | 34 | 1001.9 |
| 20260504030024 | 67 | 78 | 4.3 | 10.4 | 0.00 | 0.00 | 0.00 | 31 | 1001.9 |
| 20260504024523 | 67 | 58 | 2.6 | 5.2 | 0.00 | 0.00 | 0.00 | 28 | 1001.7 |
| 20260504023020 | 68 | 52 | 1.7 | 4.3 | 0.00 | 0.00 | 0.00 | 25 | 1001.7 |
| 20260504021525 | 70 | 53 | 4.3 | 6.1 | 0.00 | 0.00 | 0.00 | 24 | 1001.7 |
| 20260504020019 | 71 | 38 | 3.5 | 7.0 | 0.00 | 0.00 | 0.00 | 22 | 1001.6 |
| 20260504014550 | 72 | 17 | 2.6 | 7.0 | 0.00 | 0.00 | 0.00 | 22 | 1001.6 |
| 20260504013050 | 74 | 23 | 3.5 | 7.8 | 0.00 | 0.00 | 0.00 | 21 | 1001.6 |